Location: São Paulo
(23.5507°S, 46.6334°W)
Time: 14:48:05
(UTC-03:00)

Courier 1B Rocket - Visible Passes

Search period start: 18 February 2026 00:00
Search period end: 28 February 2026 00:00
Orbit: 920 x 1201 km, 28.2° (Epoch: 18 February)

Date Brightness Start Highest point End Pass type
(mag) Time Alt. Az. Time Alt. Az. Time Alt. Az.
18 Feb 7.3 03:12:50 15° NE 03:12:50 15° NE 03:16:43 10° ENE visible
18 Feb 6.1 04:59:12 12° NW 05:05:58 47° NNE 05:13:23 10° E visible
19 Feb 6.4 04:01:54 27° N 04:04:34 34° NNE 04:11:26 10° E visible
20 Feb 7.0 03:04:34 22° NE 03:04:34 22° NE 03:09:04 10° E visible
20 Feb 5.7 04:50:55 19° NW 04:56:38 63° NNE 05:04:24 10° ESE visible
21 Feb 5.9 03:53:33 41° N 03:55:11 47° NNE 04:02:38 10° E visible
22 Feb 6.7 02:56:10 28° ENE 02:56:10 28° ENE 03:00:37 10° E visible
22 Feb 5.4 04:42:31 25° WNW 04:47:21 81° NNE 04:55:16 10° ESE visible
23 Feb 5.4 03:45:06 61° N 03:45:51 64° NNE 03:53:36 10° ESE visible
23 Feb 5.6 05:32:04 10° W 05:39:49 72° S 05:47:42 10° ESE visible
24 Feb 6.7 02:47:39 31° ENE 02:47:39 31° ENE 02:51:47 10° E visible
24 Feb 5.4 04:34:01 31° W 04:38:09 83° SSW 04:46:05 10° ESE visible
25 Feb 5.2 03:36:33 82° NNE 03:36:36 82° NNE 03:44:26 10° ESE visible
25 Feb 5.7 05:23:05 10° W 05:30:44 64° S 05:38:34 10° ESE visible
26 Feb 6.8 02:39:05 30° E 02:39:05 30° E 02:42:44 10° ESE visible
26 Feb 5.5 04:25:26 34° W 04:29:02 71° S 04:36:54 10° ESE visible
27 Feb 5.3 03:27:58 77° SE 03:27:58 77° SE 03:35:13 10° ESE visible
27 Feb 5.8 05:14:19 11° W 05:21:41 62° S 05:29:29 10° E visible
